TIMED

Last updated on Sun Apr 12 2026 00:02:44 GMT+0000 (Coordinated Universal Time)

1 26998U 01055B 26101.09953411 .00001224 00000+0 11511-3 0 9997 2 26998 74.0700 10.0844 0002419 233.2601 126.8361 14.95140694320795
UTC large
Height (km)
Speed (km/s)
/
Latitude / Longitude
Inclination (degrees)
Orbital Period (minutes)
Azimuth
Elevation
Range (km)
Doppler Factor

Next 0 passes for location: London (51.5072 / 0.1276)

Sorry there are no passes over London.
TIMED